STARLINK-1629, 46150

Orbit data source: Space-Track

STARLINK-1629, 46150 is a payload satellite owned by SpaceX/Seattle (US) in LEO that was launched on Tue, 18 Aug 2020 UTC via an FALCON 9 launch vehicle from the Air Force Eastern Test Range (AFETR). Payload-class satellites include a variety of spacecraft equipped with specific instruments for various scientific and technological missions. These include communications satellites like Starlink; space stations such as the ISS; scientific satellites like the Hubble; Earth observation satellites from companies like Planet Labs, Umbra, and HawkEye 360; GPS; miniature CubeSats for education and research; and military/defense satellites.

Loading next visibility...
Identifier
46150, 2020-057AK
Orbit
LEO
Country
Flag of USUS
Related business
Manufacturer
SpaceX/Seattle
Mission
Partially operational Commercial Communications
Bus & Motor
STARLINK, Unknown motor
Mass
260 kg wet, ~248 kg dry
Launch date (UTC)
2020-08-18 (5 years ago)
Launch vehicle
FALCON 9
Launch site
Air Force Eastern Test Range (AFETR)
Object type
Payload
Rocket body
Debris
Shape & HBR
Box + 1 Pan, 10.1 m
Radar Cross Section
13.562 m², Large (>1 m²)

Expand to show TLE details & history
Last TLE update: 7 hours ago

TLE from 7 hours ago
0 STARLINK-1629
1 46150U 20057AK  26036.58334490  .00864872  35788-3  17606-2 0  9994
2 46150  53.0164  23.8168 0008158  75.7773  60.8932 15.98883937  5872
Epoch: 2026-02-05T14:00Z
TLE epoch observation values (Epoch: 2026-02-05T14:00:00.999Z)
Latitude
33.29237°
Longitude
-171.37637°
Altitude
277.121 km
Speed
7.747 km/s
True Right ascension
11h 37m 26s
True Declination
33° 07' 24"
Sunlit
Object was in full shadow at epoch
Visualization orbit readout
Latitude
Unknown
Longitude
Unknown
Altitude
Unknown
Speed
Unknown
Apparent Right ascension
Unknown
Apparent Declination
Unknown
Sunlit
N/A
Visualization observer readout
Local Sidereal Time
23:11:15
Azimuth
Unknown
Elevation
Unknown
Doppler factor
Unknown
Orbital elements
Apogee altitude
283.232 km
Perigee altitude
272.372 km
Semi-major axis
6,655.939 km
Eccentricity
0.00082
Inclination
53.0164°
RAAN
23.8168°
Arg. of periapsis
75.7773°
True anomaly
60.97492°
Mean anomaly
60.8932°
Eccentric anomaly
60.93406°
Mean motion
3.99695 °/min
Orbital period
90.07 mins
BSTAR
0.0017606
Loading maneuver chart data...
Computing Atmospheric mass density...

Documentation

Showing up to 5 results
|